Аршалы

Казахстан     50°50′01″N   72°10′56″E
темп.,
°C
ветер,
м/с
пор.,
м/с
влажн.,
%
обл.,
%
осадки,
мм/ч
давл.,
гПа
погр.,
м
25 февраля, чт
чт2523:00−23юз91592100 0.2 10171031
02:00−24юз91591100 0.1 1016865
05:00−24юз101790100 0.1 1016918
08:00−24юз101691100 0.1 10181010
11:00−24зюз111589100 0.2 10211027
14:00−23зюз101489100 0.1 10241192
17:00−23з91492100 0.2 1028919
20:00−23зюз91493100 0.1 1031730
26 февраля, пт
пт2623:00−25зюз71395100 0.2 1034546
02:00−29зюз51099100 0.1 1037247
05:00−32юз5999100 0.1 1040167
08:00−32юз599896 0.0 1040172
11:00−28юз589592 0.0 1041315
14:00−25юз589277 0.0 1040356
17:00−27ююз349558 0.0 104074
20:00−30ююз44960 0.0 104144
27 февраля, сб
сб2723:00−31ююз45960 0.0 104063
02:00−31ююз44960 0.0 104059
05:00−31ю44970 0.0 103951
08:00−30ю469521 0.0 103892
11:00−22ю589049 0.0 1036264
14:00−18ююз588773 0.0 1034359
17:00−19ю499136 0.0 1033180
20:00−16ю7148994 0.0 1030337
28 февраля, вс
вс2823:00−15ююз9178297 0.0 1028449
02:00−13ю101983100 0.0 1023572
05:00−10ююз122190100 0.3 1019792
08:00−8ююз122092100 1.2 1017897
11:00−6ююз121993100 2.9 1014889
14:00−4юз121994100 2.6 1013882
17:00−2юз121990100 3.1 1012871
20:00−1ююз121894100 1.1 1012891
1 марта, пн
пн123:00−1юз121894100 1.8 1012933
02:00−1юз121894100 1.0 1012964
05:00−2юз101695100 1.7 1012781
08:00−2юз101592100 0.4 1013718
11:00−1юз91493100 0.7 1012747
14:00−1зюз101495100 0.4 1013979
17:00−2зюз81487100 1.3 1014778
20:00−7з6149278 0.0 1017510